Previsão horária em Cepinka

Hoje, 31 Julho, Sábado

Tempo Temperatura Precipitação Vento Pressão Humidade
00:00 +18°C° 0 mm 2 m/s 739 mmHg 86%
01:00 +17°C° 0 mm 2 m/s 738 mmHg 88%
02:00 +16°C° 0 mm 3 m/s 738 mmHg 90%
03:00 +16°C° 0 mm 3 m/s 739 mmHg 89%
04:00 +16°C° 0 mm 3 m/s 739 mmHg 87%
05:00 +16°C° 0 mm 3 m/s 739 mmHg 86%
06:00 +18°C° 0 mm 3 m/s 739 mmHg 78%
07:00 +20°C° 0 mm 4 m/s 739 mmHg 71%
08:00 +22°C° 0 mm 4 m/s 739 mmHg 64%
09:00 +23°C° 0 mm 4 m/s 740 mmHg 59%
10:00 +25°C° 0 mm 5 m/s 740 mmHg 54%
11:00 +27°C° 0 mm 5 m/s 740 mmHg 49%
12:00 +27°C° 0 mm 5 m/s 740 mmHg 49%
13:00 +27°C° 0 mm 4 m/s 740 mmHg 49%
14:00 +27°C° 0 mm 4 m/s 739 mmHg 50%
15:00 +27°C° 0 mm 4 m/s 740 mmHg 49%
16:00 +27°C° 0 mm 4 m/s 740 mmHg 48%
17:00 +27°C° 0 mm 4 m/s 740 mmHg 48%
18:00 +25°C° 0 mm 3 m/s 740 mmHg 54%
19:00 +22°C° 0 mm 3 m/s 740 mmHg 59%
20:00 +20°C° 0 mm 2 m/s 741 mmHg 65%
21:00 +19°C° 0 mm 2 m/s 741 mmHg 66%
22:00 +19°C° 0 mm 2 m/s 741 mmHg 67%
23:00 +18°C° 0 mm 2 m/s 742 mmHg 69%

Amanhã, 1 Agosto, Domingo

Tempo Temperatura Precipitação Vento Pressão Humidade
00:00 +18°C° 0 mm 2 m/s 742 mmHg 70%
01:00 +17°C° 0 mm 2 m/s 742 mmHg 72%
02:00 +17°C° 0 mm 2 m/s 742 mmHg 73%
03:00 +17°C° 0 mm 2 m/s 742 mmHg 75%
04:00 +17°C° 0 mm 2 m/s 742 mmHg 76%
05:00 +17°C° 0 mm 2 m/s 742 mmHg 78%
06:00 +20°C° 0 mm 3 m/s 742 mmHg 70%
07:00 +22°C° 0 mm 3 m/s 742 mmHg 63%
08:00 +26°C° 0 mm 4 m/s 742 mmHg 55%
09:00 +27°C° 0 mm 4 m/s 742 mmHg 52%
10:00 +29°C° 0 mm 5 m/s 742 mmHg 49%
11:00 +30°C° 0 mm 5 m/s 742 mmHg 47%
12:00 +30°C° 0 mm 5 m/s 742 mmHg 46%
13:00 +32°C° 0 mm 5 m/s 742 mmHg 45%
14:00 +32°C° 0 mm 5 m/s 741 mmHg 45%
15:00 +30°C° 0 mm 5 m/s 741 mmHg 48%
16:00 +30°C° 0 mm 4 m/s 741 mmHg 52%
17:00 +29°C° 0 mm 3 m/s 741 mmHg 56%
18:00 +27°C° 0.3 mm 3 m/s 741 mmHg 66%
19:00 +24°C° 0.3 mm 2 m/s 741 mmHg 76%
20:00 +22°C° 0.3 mm 1 m/s 741 mmHg 86%
21:00 +22°C° 0.3 mm 1 m/s 741 mmHg 88%
22:00 +21°C° 0.3 mm 1 m/s 741 mmHg 89%
23:00 +21°C° 0.3 mm 1 m/s 741 mmHg 90%

Depois de amanhã, 2 Agosto, Segunda-feira

Tempo Temperatura Precipitação Vento Pressão Humidade
00:00 +21°C° 0.1 mm 1 m/s 741 mmHg 90%
01:00 +20°C° 0.1 mm 1 m/s 741 mmHg 90%
02:00 +20°C° 0.1 mm 1 m/s 741 mmHg 90%
03:00 +20°C° 0.1 mm 1 m/s 741 mmHg 89%
04:00 +21°C° 0.1 mm 1 m/s 741 mmHg 88%
05:00 +21°C° 0.1 mm 1 m/s 741 mmHg 87%
06:00 +21°C° 0 mm 2 m/s 740 mmHg 81%
07:00 +24°C° 0 mm 2 m/s 740 mmHg 75%
08:00 +25°C° 0 mm 2 m/s 740 mmHg 69%
09:00 +26°C° 0 mm 3 m/s 740 mmHg 64%
10:00 +27°C° 0 mm 3 m/s 740 mmHg 59%
11:00 +28°C° 0 mm 3 m/s 739 mmHg 53%
12:00 +30°C° 0 mm 4 m/s 739 mmHg 50%
13:00 +32°C° 0 mm 6 m/s 738 mmHg 47%
14:00 +33°C° 0 mm 7 m/s 738 mmHg 44%
15:00 +32°C° 0 mm 6 m/s 738 mmHg 49%
16:00 +30°C° 0 mm 6 m/s 737 mmHg 54%
17:00 +29°C° 0 mm 5 m/s 737 mmHg 59%
18:00 +27°C° 0.1 mm 5 m/s 737 mmHg 63%
19:00 +25°C° 0.1 mm 5 m/s 737 mmHg 67%
20:00 +22°C° 0.1 mm 4 m/s 737 mmHg 71%
21:00 +21°C° 0.9 mm 4 m/s 737 mmHg 79%
22:00 +20°C° 0.9 mm 3 m/s 737 mmHg 87%
23:00 +18°C° 0.9 mm 3 m/s 737 mmHg 94%

3 Agosto, Terça-feira

Tempo Temperatura Precipitação Vento Pressão Humidade
00:00 +19°C° 0.3 mm 3 m/s 737 mmHg 95%
01:00 +19°C° 0.3 mm 3 m/s 737 mmHg 96%
02:00 +19°C° 0.3 mm 2 m/s 736 mmHg 96%
03:00 +18°C° 0 mm 3 m/s 736 mmHg 96%
04:00 +18°C° 0 mm 3 m/s 737 mmHg 96%
05:00 +18°C° 0 mm 4 m/s 737 mmHg 95%
06:00 +18°C° 0.2 mm 4 m/s 737 mmHg 94%
07:00 +18°C° 0.2 mm 4 m/s 737 mmHg 93%
08:00 +19°C° 0.2 mm 4 m/s 738 mmHg 92%
09:00 +18°C° 0.3 mm 4 m/s 738 mmHg 91%
10:00 +17°C° 0.3 mm 5 m/s 739 mmHg 90%
11:00 +17°C° 0.3 mm 5 m/s 740 mmHg 89%
12:00 +17°C° 0.1 mm 5 m/s 740 mmHg 85%
13:00 +19°C° 0.1 mm 5 m/s 740 mmHg 80%
14:00 +19°C° 0.1 mm 5 m/s 741 mmHg 76%
15:00 +20°C° 0.3 mm 4 m/s 741 mmHg 75%
16:00 +20°C° 0.3 mm 4 m/s 741 mmHg 74%
17:00 +20°C° 0.3 mm 3 m/s 741 mmHg 74%
18:00 +19°C° 0.1 mm 3 m/s 741 mmHg 76%
19:00 +17°C° 0.1 mm 3 m/s 742 mmHg 79%
20:00 +16°C° 0.1 mm 2 m/s 742 mmHg 82%
21:00 +15°C° 0 mm 2 m/s 742 mmHg 83%
22:00 +15°C° 0 mm 2 m/s 743 mmHg 84%
23:00 +14°C° 0 mm 2 m/s 743 mmHg 85%

4 Agosto, Quarta-feira

Tempo Temperatura Precipitação Vento Pressão Humidade
00:00 +14°C° 0 mm 2 m/s 743 mmHg 86%
01:00 +14°C° 0 mm 2 m/s 743 mmHg 87%
02:00 +13°C° 0 mm 2 m/s 744 mmHg 87%
03:00 +13°C° 0 mm 2 m/s 744 mmHg 88%
04:00 +13°C° 0 mm 2 m/s 744 mmHg 88%
05:00 +14°C° 0 mm 2 m/s 744 mmHg 88%
06:00 +16°C° 0 mm 2 m/s 745 mmHg 81%
07:00 +18°C° 0 mm 2 m/s 745 mmHg 74%
08:00 +20°C° 0 mm 2 m/s 745 mmHg 66%
09:00 +21°C° 0 mm 2 m/s 745 mmHg 61%
10:00 +23°C° 0 mm 2 m/s 746 mmHg 55%
11:00 +25°C° 0 mm 2 m/s 746 mmHg 50%
12:00 +25°C° 0 mm 3 m/s 746 mmHg 47%
13:00 +26°C° 0 mm 3 m/s 746 mmHg 44%
14:00 +26°C° 0 mm 3 m/s 746 mmHg 42%
15:00 +25°C° 0 mm 3 m/s 746 mmHg 47%
16:00 +24°C° 0 mm 2 m/s 746 mmHg 53%
17:00 +24°C° 0 mm 2 m/s 746 mmHg 58%
18:00 +21°C° 0 mm 2 m/s 746 mmHg 62%
19:00 +21°C° 0 mm 1 m/s 746 mmHg 66%
20:00 +20°C° 0 mm 1 m/s 746 mmHg 70%
21:00 +20°C° 0 mm 1 m/s 746 mmHg 70%
22:00 +20°C° 0 mm 1 m/s 746 mmHg 70%
23:00 +18°C° 0 mm 0 m/s 746 mmHg 70%

5 Agosto, Quinta-feira

Tempo Temperatura Precipitação Vento Pressão Humidade
00:00 +18°C° 0 mm 0 m/s 746 mmHg 71%
01:00 +17°C° 0 mm 0 m/s 746 mmHg 71%
02:00 +17°C° 0 mm 0 m/s 746 mmHg 71%
03:00 +19°C° 0 mm 1 m/s 746 mmHg 72%
04:00 +19°C° 0 mm 1 m/s 746 mmHg 72%
05:00 +19°C° 0 mm 1 m/s 746 mmHg 73%
06:00 +19°C° 0 mm 2 m/s 746 mmHg 70%
07:00 +20°C° 0 mm 2 m/s 746 mmHg 67%
08:00 +20°C° 0 mm 2 m/s 746 mmHg 64%
09:00 +23°C° 0 mm 2 m/s 746 mmHg 57%
10:00 +25°C° 0 mm 2 m/s 746 mmHg 50%
11:00 +26°C° 0 mm 3 m/s 746 mmHg 43%
12:00 +27°C° 0 mm 3 m/s 746 mmHg 41%
13:00 +27°C° 0 mm 3 m/s 745 mmHg 38%
14:00 +28°C° 0 mm 3 m/s 745 mmHg 35%
15:00 +26°C° 0 mm 3 m/s 745 mmHg 48%
16:00 +22°C° 0 mm 3 m/s 745 mmHg 60%
17:00 +19°C° 0 mm 4 m/s 745 mmHg 72%
18:00 +18°C° 0.1 mm 3 m/s 745 mmHg 78%
19:00 +17°C° 0.1 mm 2 m/s 745 mmHg 83%
20:00 +16°C° 0.1 mm 1 m/s 744 mmHg 89%
21:00 +16°C° 0 mm 2 m/s 744 mmHg 89%
22:00 +16°C° 0 mm 2 m/s 744 mmHg 89%
23:00 +16°C° 0 mm 2 m/s 744 mmHg 89%
Mostrar mais

Necessitamos do seu Consentimento

A Meteoprog e os seus Fornecedores de Serviços podem armazenar e aceder a dados pessoais como cookies, identificadores do dispositivo ou outras tecnologias semelhantes existentes no seu dispositivo e processar estes dados para personalizar conteúdos e anúncios, assim como funcionalidades nas redes sociais e análise de tráfego.

  • Armazenar e/ou aceder a informações no seu dispositivo

    Os cookies, identificadores do dispositivo ou outras informações podem ser armazenados ou acedidos no seu dispositivo, para os fins acima indicados.

  • Anúncios e conteúdos personalizados, medição de anúncios e conteúdos, dados sobre o público-alvo e desenvolvimento de produtos

    Os anúncios e os conteúdos podem ser personalizados com base num perfil. Podem ser adicionados dados adicionais para uma maior personalização dos anúncios e dos conteúdos. A eficácia dos anúncios e dos conteúdos pode ser medida. Podem ser obtidas informações sobre o público que visualizou os anúncios e os conteúdos. Estes dados podem ser usados para desenvolver ou melhorar sistemas, softwares ou a experiência do utilizador.

Ao clicar em "Eu concordo”, permitirá o uso de cookies, identificadores do dispositivo e web beacons mencionados ou outras tecnologias semelhantes. As configurações do navegador do seu dispositivo podem ser alteradas.

Para certos fins, podem ser invocados interesses legítimos ao invés de consentimento. Pode ler mais informação sobre este assunto na nossa Política de Privacidade e Cookies.